TimeEST,TemperatureF,Dew PointF,Humidity,Sea Level PressureIn,VisibilityMPH,Wind Direction,Wind SpeedMPH,Gust SpeedMPH,PrecipitationIn,Events,Conditions,WindDirDegrees,DateUTC
12:55 AM,63.0,61.0,93,29.97,10.0,SSE,4.6,-,N/A,,Mostly Cloudy,150,2012-12-10 05:55:00
1:55 AM,63.9,62.1,94,29.95,10.0,SSE,3.5,-,N/A,,Overcast,160,2012-12-10 06:55:00
2:04 AM,64.4,62.6,94,29.95,10.0,Variable,3.5,-,N/A,,Overcast,0,2012-12-10 07:04:00
2:12 AM,64.4,62.6,94,29.95,10.0,South,4.6,-,N/A,,Overcast,170,2012-12-10 07:12:00
2:26 AM,64.4,62.6,94,29.94,10.0,SSE,4.6,-,N/A,,Overcast,150,2012-12-10 07:26:00
2:55 AM,63.9,62.6,96,29.93,10.0,SSE,6.9,-,N/A,,Overcast,160,2012-12-10 07:55:00
3:32 AM,64.4,62.6,94,29.92,10.0,South,5.8,-,N/A,,Overcast,180,2012-12-10 08:32:00
3:42 AM,64.4,62.6,94,29.92,10.0,South,3.5,-,N/A,,Overcast,170,2012-12-10 08:42:00
3:55 AM,64.4,63.0,95,29.91,10.0,South,3.5,-,N/A,,Overcast,170,2012-12-10 08:55:00
4:40 AM,64.4,62.6,94,29.89,10.0,South,4.6,-,N/A,,Mostly Cloudy,170,2012-12-10 09:40:00
4:55 AM,64.8,63.3,95,29.88,10.0,SSE,3.5,-,N/A,,Overcast,160,2012-12-10 09:55:00
5:00 AM,64.4,62.6,94,29.88,10.0,SSE,3.5,-,N/A,,Overcast,160,2012-12-10 10:00:00
5:13 AM,64.4,62.6,94,29.87,10.0,South,4.6,-,N/A,,Overcast,170,2012-12-10 10:13:00
5:30 AM,64.4,62.6,94,29.87,10.0,SSE,4.6,-,N/A,,Overcast,150,2012-12-10 10:30:00
5:55 AM,64.4,63.3,96,29.86,10.0,Calm,Calm,-,N/A,,Mostly Cloudy,0,2012-12-10 10:55:00
6:55 AM,63.7,63.0,97,29.87,10.0,Calm,Calm,-,N/A,,Overcast,0,2012-12-10 11:55:00
7:23 AM,64.4,62.6,94,29.85,10.0,Calm,Calm,-,N/A,,Overcast,0,2012-12-10 12:23:00
7:33 AM,64.4,62.6,94,29.85,10.0,South,4.6,-,N/A,,Overcast,180,2012-12-10 12:33:00
7:55 AM,64.4,63.5,97,29.85,3.0,South,4.6,-,N/A,,Overcast,190,2012-12-10 12:55:00
7:58 AM,64.4,64.4,100,29.85,2.0,South,5.8,-,N/A,,Overcast,190,2012-12-10 12:58:00
8:02 AM,64.4,64.4,100,29.86,1.8,South,6.9,-,N/A,,Overcast,190,2012-12-10 13:02:00
8:13 AM,64.4,64.4,100,29.86,3.0,SSW,5.8,-,N/A,,Overcast,200,2012-12-10 13:13:00
8:41 AM,64.4,64.4,100,29.85,10.0,SSW,6.9,-,N/A,,Overcast,210,2012-12-10 13:41:00
8:55 AM,65.7,64.8,97,29.85,10.0,SW,10.4,-,N/A,,Overcast,220,2012-12-10 13:55:00
8:59 AM,66.2,64.4,94,29.85,10.0,SW,9.2,-,N/A,,Overcast,220,2012-12-10 13:59:00
9:55 AM,66.7,64.9,94,29.85,10.0,SW,10.4,-,N/A,,Overcast,220,2012-12-10 14:55:00
10:02 AM,68.0,64.4,88,29.84,10.0,SSW,10.4,-,N/A,,Overcast,210,2012-12-10 15:02:00
10:19 AM,68.0,64.4,88,29.84,10.0,SSW,11.5,-,N/A,,Overcast,200,2012-12-10 15:19:00
10:32 AM,68.0,64.4,88,29.84,10.0,SW,11.5,-,N/A,,Overcast,220,2012-12-10 15:32:00
10:55 AM,68.4,64.6,88,29.83,10.0,SW,12.7,-,N/A,,Overcast,220,2012-12-10 15:55:00
11:10 AM,69.8,64.4,83,29.83,10.0,SW,12.7,-,N/A,,Overcast,230,2012-12-10 16:10:00
11:55 AM,69.3,63.9,83,29.81,10.0,SW,16.1,-,N/A,,Overcast,230,2012-12-10 16:55:00
12:14 PM,69.8,64.4,83,29.80,10.0,SSW,10.4,-,N/A,,Overcast,210,2012-12-10 17:14:00
12:32 PM,71.6,62.6,73,29.79,10.0,WSW,15.0,-,N/A,,Mostly Cloudy,240,2012-12-10 17:32:00
12:36 PM,71.6,62.6,73,29.79,10.0,WSW,13.8,-,N/A,,Mostly Cloudy,240,2012-12-10 17:36:00
12:55 PM,70.9,63.0,76,29.78,10.0,SW,15.0,-,N/A,,Mostly Cloudy,230,2012-12-10 17:55:00
1:06 PM,71.6,62.6,73,29.77,10.0,SW,12.7,-,N/A,,Mostly Cloudy,230,2012-12-10 18:06:00
1:37 PM,73.4,59.0,61,29.77,10.0,SW,18.4,26.5,N/A,,Mostly Cloudy,230,2012-12-10 18:37:00
1:55 PM,72.9,58.1,60,29.75,10.0,WSW,18.4,26.5,N/A,,Mostly Cloudy,240,2012-12-10 18:55:00
3:55 PM,71.4,56.5,59,29.74,10.0,SW,11.5,-,N/A,,Mostly Cloudy,230,2012-12-10 20:55:00
4:55 PM,70.2,56.3,61,29.75,10.0,SW,11.5,-,N/A,,Scattered Clouds,220,2012-12-10 21:55:00
5:55 PM,68.4,55.8,64,29.75,10.0,South,5.8,-,N/A,,Scattered Clouds,190,2012-12-10 22:55:00
6:55 PM,66.4,55.9,69,29.76,10.0,South,4.6,-,N/A,,Clear,180,2012-12-10 23:55:00
7:55 PM,65.5,59.4,81,29.76,10.0,SSW,11.5,-,N/A,,Partly Cloudy,200,2012-12-11 00:55:00
8:55 PM,65.1,59.0,81,29.74,10.0,South,10.4,-,N/A,,Overcast,190,2012-12-11 01:55:00
9:55 PM,64.8,59.0,82,29.74,10.0,SSW,11.5,-,N/A,,Overcast,200,2012-12-11 02:55:00
10:55 PM,64.9,58.5,79,29.75,10.0,SSW,8.1,-,N/A,,Overcast,210,2012-12-11 03:55:00
11:55 PM,65.1,57.6,76,29.74,10.0,South,8.1,-,N/A,,Overcast,180,2012-12-11 04:55:00